TISAT 1

Last updated on Thu Oct 16 2025 00:03:48 GMT+0000 (Coordinated Universal Time)

1 36799U 10035E 25288.59142415 .00022956 00000+0 10520-2 0 9992 2 36799 98.0536 210.8692 0004794 52.6450 307.5220 15.20473529830391
UTC large
Height (km)
Speed (km/s)
/
Latitude / Longitude
Inclination (degrees)
Orbital Period (minutes)
Azimuth
Elevation
Range (km)
Doppler Factor

Next 0 passes for location: London (51.5072 / 0.1276)

Sorry there are no passes over London.